Precipitable_Water
0.59 0.59 0.59 0.59 0.59 0.59 0.59 0.61 0.61 0.61 0.61 0.59 0.59 0.57 0.57 0.57 0.59 0.59 0.59 0.61 0.61 0.61 0.61 0.63 0.63 0.63 0.63 0.63 0.59 0.57 0.57 0.57 0.57 0.57 0.57 0.55 0.55 0.55 0.59 0.63 0.69 0.79 0.87 0.89 0.89 0.87 0.85 0.83 0.83 0.85 0.87 0.97 1.03 1.11 1.14 1.16 1.14 1.13 1.09 1.09 1.07 1.05 1.03 1.01 0.99 0.95 0.93 0.91 0.91
0.59 0.59 0.59 0.61 0.61 0.61 0.61 0.61 0.61 0.61 0.61 0.61 0.61 0.61 0.61 0.61 0.61 0.61 0.63 0.63 0.63 0.65 0.65 0.67 0.67 0.67 0.67 0.67 0.65 0.63 0.61 0.61 0.59 0.59 0.57 0.55 0.55 0.55 0.59 0.63 0.69 0.79 0.87 0.89 0.89 0.89 0.87 0.85 0.81 0.81 0.85 0.93 1.03 1.09 1.13 1.16 1.14 1.11 1.09 1.07 1.07 1.05 1.05 1.03 0.99 0.97 0.93 0.93 0.91
0.59 0.59 0.59 0.61 0.61 0.61 0.61 0.61 0.61 0.63 0.63 0.63 0.63 0.63 0.63 0.63 0.63 0.65 0.65 0.65 0.67 0.69 0.69 0.69 0.69 0.69 0.69 0.69 0.69 0.69 0.69 0.67 0.65 0.63 0.59 0.57 0.55 0.55 0.57 0.61 0.67 0.77 0.87 0.91 0.91 0.91 0.89 0.85 0.81 0.79 0.83 0.91 1.01 1.07 1.11 1.16 1.14 1.11 1.07 1.07 1.07 1.07 1.05 1.05 1.01 0.99 0.97 0.95 0.93
0.57 0.57 0.57 0.59 0.59 0.61 0.61 0.61 0.61 0.63 0.65 0.65 0.65 0.67 0.67 0.67 0.67 0.69 0.69 0.71 0.71 0.71 0.71 0.71 0.71 0.71 0.73 0.71 0.73 0.73 0.73 0.71 0.69 0.65 0.63 0.61 0.57 0.55 0.55 0.57 0.63 0.69 0.79 0.93 0.95 0.95 0.93 0.93 0.87 0.83 0.83 0.89 0.99 1.07 1.11 1.14 1.13 1.11 1.09 1.07 1.07 1.07 1.07 1.05 1.03 1.01 0.99 0.97 0.97
0.55 0.55 0.57 0.59 0.61 0.61 0.63 0.63 0.63 0.65 0.65 0.67 0.67 0.69 0.69 0.71 0.71 0.73 0.73 0.73 0.73 0.73 0.73 0.73 0.73 0.73 0.75 0.75 0.75 0.75 0.73 0.73 0.71 0.69 0.67 0.65 0.61 0.57 0.57 0.57 0.59 0.65 0.73 0.91 0.97 0.99 0.99 0.97 0.91 0.85 0.83 0.91 1.01 1.09 1.13 1.16 1.11 1.09 1.07 1.09 1.07 1.07 1.07 1.07 1.05 1.03 1.01 0.99 0.97
0.55 0.57 0.59 0.61 0.63 0.63 0.65 0.65 0.65 0.67 0.69 0.69 0.71 0.71 0.73 0.73 0.75 0.75 0.75 0.75 0.75 0.75 0.75 0.77 0.75 0.75 0.77 0.75 0.75 0.75 0.75 0.73 0.71 0.71 0.69 0.67 0.63 0.59 0.57 0.57 0.57 0.61 0.67 0.73 0.93 1.01 1.01 0.99 0.91 0.87 0.85 0.93 1.03 1.11 1.14 1.16 1.14 1.11 1.09 1.07 1.09 1.09 1.09 1.09 1.09 1.05 1.03 0.99 0.95
0.57 0.59 0.61 0.63 0.65 0.65 0.65 0.67 0.67 0.69 0.73 0.75 0.75 0.75 0.77 0.77 0.79 0.77 0.77 0.77 0.77 0.77 0.77 0.77 0.77 0.77 0.77 0.77 0.77 0.77 0.75 0.75 0.73 0.71 0.69 0.67 0.67 0.63 0.59 0.57 0.59 0.61 0.65 0.71 0.89 0.97 0.99 0.99 0.93 0.87 0.87 0.99 1.07 1.13 1.16 1.18 1.14 1.11 1.07 1.05 1.07 1.09 1.09 1.09 1.11 1.07 1.03 0.97 0.95
0.59 0.59 0.61 0.63 0.65 0.65 0.67 0.67 0.69 0.73 0.75 0.77 0.79 0.79 0.79 0.81 0.81 0.79 0.79 0.79 0.79 0.79 0.81 0.81 0.79 0.79 0.79 0.79 0.77 0.77 0.77 0.75 0.73 0.71 0.71 0.69 0.67 0.65 0.61 0.59 0.59 0.61 0.65 0.71 0.85 0.93 0.95 0.97 0.93 0.89 0.89 0.93 1.07 1.16 1.18 1.16 1.13 1.09 1.07 1.05 1.07 1.09 1.09 1.11 1.11 1.11 1.07 0.97 0.93
0.59 0.61 0.63 0.65 0.67 0.67 0.69 0.69 0.71 0.73 0.75 0.77 0.79 0.79 0.81 0.81 0.81 0.81 0.81 0.81 0.83 0.83 0.83 0.83 0.83 0.81 0.81 0.81 0.79 0.79 0.77 0.75 0.75 0.73 0.71 0.71 0.69 0.65 0.63 0.61 0.59 0.61 0.63 0.69 0.75 0.85 0.93 0.93 0.93 0.93 0.95 1.01 1.11 1.18 1.18 1.16 1.11 1.07 1.05 1.03 1.07 1.09 1.11 1.13 1.13 1.11 1.09 1.07 0.97
0.59 0.61 0.63 0.65 0.67 0.67 0.69 0.69 0.71 0.73 0.75 0.77 0.79 0.79 0.81 0.83 0.85 0.87 0.87 0.87 0.87 0.87 0.85 0.85 0.83 0.83 0.83 0.81 0.81 0.81 0.79 0.77 0.75 0.73 0.73 0.71 0.69 0.67 0.65 0.61 0.59 0.59 0.61 0.67 0.73 0.83 0.89 0.91 0.91 0.95 0.99 1.09 1.13 1.16 1.18 1.14 1.09 1.05 1.03 1.03 1.05 1.07 1.09 1.11 1.11 1.11 1.09 1.07 1.01
0.59 0.61 0.63 0.65 0.67 0.67 0.69 0.69 0.69 0.73 0.77 0.79 0.81 0.83 0.83 0.85 0.89 0.89 0.91 0.91 0.89 0.87 0.87 0.87 0.85 0.83 0.83 0.83 0.81 0.81 0.81 0.79 0.77 0.75 0.73 0.71 0.69 0.67 0.65 0.61 0.59 0.57 0.59 0.65 0.73 0.81 0.87 0.89 0.91 0.97 1.03 1.13 1.14 1.16 1.16 1.13 1.05 1.01 0.99 1.01 1.03 1.05 1.09 1.09 1.09 1.09 1.07 1.03 1.01
0.59 0.61 0.63 0.65 0.67 0.67 0.67 0.69 0.69 0.73 0.79 0.81 0.83 0.85 0.85 0.87 0.89 0.91 0.93 0.91 0.89 0.87 0.87 0.87 0.85 0.85 0.83 0.83 0.81 0.81 0.81 0.81 0.77 0.75 0.73 0.71 0.69 0.69 0.67 0.65 0.59 0.57 0.61 0.65 0.75 0.81 0.87 0.89 0.91 0.99 1.07 1.14 1.16 1.18 1.16 1.13 1.03 0.97 0.95 0.95 0.99 1.03 1.05 1.05 1.05 1.05 1.05 1.03 1.03
0.59 0.61 0.63 0.65 0.65 0.67 0.67 0.69 0.69 0.75 0.79 0.81 0.83 0.85 0.87 0.87 0.89 0.91 0.91 0.89 0.89 0.87 0.87 0.87 0.85 0.83 0.83 0.81 0.81 0.81 0.81 0.81 0.79 0.75 0.73 0.71 0.71 0.69 0.67 0.65 0.59 0.59 0.63 0.69 0.77 0.83 0.87 0.87 0.91 0.99 1.09 1.14 1.16 1.16 1.16 1.13 1.03 0.93 0.89 0.89 0.93 0.99 1.03 1.05 1.05 1.07 1.07 1.05 1.07
0.59 0.59 0.61 0.63 0.65 0.65 0.67 0.69 0.71 0.75 0.79 0.81 0.83 0.85 0.87 0.89 0.89 0.89 0.89 0.89 0.87 0.87 0.87 0.85 0.85 0.83 0.81 0.79 0.79 0.81 0.81 0.81 0.79 0.77 0.73 0.71 0.71 0.69 0.67 0.65 0.61 0.61 0.65 0.73 0.79 0.85 0.87 0.87 0.89 1.01 1.11 1.13 1.14 1.14 1.14 1.11 1.05 0.95 0.87 0.85 0.91 0.95 1.01 1.07 1.09 1.09 1.09 1.07 1.09
0.57 0.59 0.61 0.63 0.63 0.65 0.67 0.69 0.71 0.75 0.81 0.83 0.85 0.87 0.89 0.89 0.89 0.91 0.89 0.89 0.89 0.89 0.87 0.87 0.85 0.81 0.79 0.77 0.77 0.79 0.79 0.79 0.79 0.77 0.73 0.71 0.69 0.69 0.67 0.65 0.61 0.63 0.69 0.75 0.83 0.87 0.89 0.89 0.93 1.03 1.11 1.13 1.13 1.13 1.11 1.09 1.05 0.97 0.91 0.87 0.89 0.95 1.01 1.07 1.09 1.09 1.09 1.07 1.09
0.57 0.59 0.61 0.61 0.63 0.65 0.67 0.69 0.71 0.77 0.81 0.85 0.87 0.89 0.89 0.91 0.91 0.91 0.91 0.89 0.89 0.87 0.85 0.83 0.81 0.77 0.75 0.73 0.75 0.75 0.77 0.79 0.79 0.77 0.73 0.71 0.69 0.67 0.67 0.65 0.61 0.63 0.69 0.79 0.85 0.87 0.89 0.93 0.99 1.05 1.11 1.13 1.13 1.11 1.07 1.07 1.05 1.01 0.97 0.93 0.93 0.95 1.01 1.05 1.05 1.05 1.05 1.05 1.05
0.57 0.59 0.59 0.61 0.63 0.65 0.67 0.69 0.71 0.77 0.83 0.85 0.87 0.89 0.89 0.91 0.91 0.91 0.91 0.89 0.87 0.83 0.81 0.77 0.75 0.73 0.71 0.71 0.71 0.73 0.75 0.77 0.77 0.77 0.73 0.69 0.69 0.67 0.65 0.63 0.61 0.63 0.69 0.81 0.85 0.89 0.93 0.99 1.05 1.11 1.13 1.14 1.13 1.09 1.07 1.05 1.03 1.03 1.01 0.99 0.97 0.97 0.99 1.03 1.01 0.99 0.99 0.99 0.99
0.55 0.57 0.59 0.61 0.63 0.63 0.65 0.69 0.71 0.77 0.83 0.85 0.87 0.89 0.89 0.91 0.91 0.89 0.89 0.87 0.83 0.79 0.75 0.73 0.71 0.71 0.69 0.67 0.69 0.71 0.73 0.75 0.75 0.75 0.73 0.69 0.69 0.67 0.65 0.61 0.61 0.65 0.71 0.81 0.87 0.91 0.97 1.03 1.09 1.13 1.14 1.13 1.11 1.07 1.05 1.03 1.03 1.03 1.05 1.03 1.03 1.01 1.01 1.01 0.97 0.95 0.95 0.93 0.93
0.55 0.57 0.59 0.59 0.61 0.63 0.65 0.69 0.71 0.77 0.83 0.87 0.87 0.89 0.89 0.91 0.91 0.89 0.85 0.83 0.79 0.75 0.71 0.69 0.67 0.67 0.67 0.67 0.69 0.71 0.73 0.75 0.75 0.75 0.73 0.71 0.67 0.65 0.63 0.59 0.61 0.67 0.73 0.81 0.87 0.95 1.01 1.07 1.11 1.13 1.13 1.13 1.09 1.07 1.03 1.01 1.03 1.03 1.05 1.07 1.05 1.05 1.03 0.99 0.97 0.95 0.93 0.93 0.93
0.55 0.55 0.57 0.59 0.61 0.63 0.65 0.67 0.71 0.77 0.83 0.85 0.87 0.89 0.89 0.89 0.91 0.85 0.81 0.79 0.77 0.75 0.71 0.67 0.67 0.67 0.67 0.67 0.69 0.71 0.73 0.75 0.75 0.73 0.73 0.71 0.67 0.63 0.61 0.61 0.65 0.71 0.79 0.85 0.89 0.97 1.05 1.09 1.11 1.11 1.11 1.11 1.09 1.05 1.03 0.99 0.99 1.01 1.01 1.03 1.05 1.05 1.01 0.97 0.95 0.95 0.95 0.97 0.99
0.55 0.55 0.57 0.59 0.61 0.61 0.65 0.67 0.71 0.77 0.83 0.85 0.87 0.89 0.89 0.91 0.89 0.85 0.81 0.79 0.77 0.75 0.71 0.67 0.67 0.67 0.67 0.67 0.69 0.71 0.73 0.75 0.75 0.73 0.73 0.73 0.69 0.65 0.65 0.67 0.75 0.81 0.87 0.91 0.97 1.01 1.05 1.11 1.11 1.11 1.11 1.09 1.07 1.05 1.01 0.97 0.95 0.97 0.97 0.99 0.99 0.99 0.97 0.93 0.93 0.93 0.95 1.01 1.03
0.55 0.57 0.57 0.59 0.61 0.63 0.65 0.67 0.71 0.77 0.81 0.85 0.87 0.89 0.89 0.91 0.89 0.83 0.79 0.81 0.79 0.77 0.73 0.69 0.67 0.67 0.67 0.69 0.71 0.73 0.73 0.75 0.75 0.73 0.73 0.73 0.71 0.71 0.73 0.79 0.83 0.89 0.95 0.99 1.03 1.07 1.09 1.11 1.11 1.11 1.09 1.07 1.05 1.01 0.99 0.95 0.93 0.93 0.93 0.93 0.93 0.93 0.93 0.89 0.89 0.93 0.95 1.01 1.03
0.57 0.57 0.59 0.59 0.61 0.63 0.65 0.69 0.73 0.77 0.81 0.85 0.87 0.89 0.89 0.91 0.89 0.83 0.79 0.79 0.79 0.77 0.75 0.73 0.71 0.69 0.69 0.69 0.71 0.71 0.71 0.71 0.69 0.67 0.69 0.71 0.73 0.77 0.81 0.89 0.93 0.97 1.01 1.05 1.09 1.11 1.13 1.13 1.11 1.09 1.07 1.05 1.03 0.99 0.97 0.93 0.91 0.89 0.89 0.89 0.89 0.87 0.85 0.85 0.87 0.91 0.97 1.01 1.01
0.57 0.57 0.59 0.61 0.61 0.63 0.65 0.69 0.75 0.77 0.79 0.83 0.85 0.87 0.89 0.89 0.89 0.87 0.83 0.79 0.79 0.79 0.77 0.75 0.73 0.71 0.69 0.67 0.67 0.67 0.65 0.63 0.61 0.63 0.67 0.73 0.79 0.83 0.89 0.97 0.99 1.03 1.07 1.09 1.13 1.13 1.14 1.13 1.11 1.07 1.05 1.03 1.01 0.97 0.95 0.91 0.89 0.87 0.87 0.87 0.85 0.83 0.81 0.81 0.85 0.89 0.95 0.99 0.99
0.59 0.59 0.59 0.61 0.63 0.65 0.67 0.69 0.73 0.75 0.77 0.81 0.85 0.87 0.89 0.89 0.91 0.89 0.87 0.83 0.81 0.81 0.79 0.77 0.77 0.73 0.71 0.67 0.65 0.65 0.65 0.63 0.67 0.71 0.75 0.81 0.85 0.91 0.95 0.99 1.05 1.07 1.09 1.11 1.13 1.13 1.14 1.13 1.11 1.07 1.05 1.03 0.99 0.95 0.93 0.91 0.89 0.87 0.87 0.85 0.83 0.81 0.79 0.81 0.83 0.87 0.91 0.93 0.95
0.59 0.59 0.61 0.61 0.63 0.65 0.67 0.69 0.73 0.75 0.77 0.79 0.83 0.87 0.89 0.89 0.91 0.91 0.91 0.85 0.85 0.83 0.83 0.81 0.81 0.79 0.77 0.73 0.77 0.77 0.75 0.77 0.79 0.81 0.85 0.89 0.91 0.95 0.99 1.03 1.05 1.07 1.09 1.09 1.11 1.11 1.11 1.11 1.09 1.07 1.05 1.01 0.97 0.95 0.91 0.91 0.89 0.89 0.87 0.85 0.85 0.83 0.83 0.83 0.85 0.89 0.91 0.95 0.97
0.59 0.59 0.61 0.61 0.63 0.65 0.67 0.69 0.73 0.75 0.77 0.79 0.83 0.85 0.89 0.91 0.91 0.93 0.93 0.91 0.89 0.89 0.89 0.89 0.87 0.87 0.89 0.93 0.93 0.91 0.89 0.89 0.89 0.91 0.93 0.95 0.97 0.99 1.01 1.05 1.05 1.07 1.07 1.09 1.09 1.11 1.11 1.11 1.07 1.05 1.03 1.03 0.97 0.93 0.91 0.89 0.89 0.89 0.87 0.87 0.89 0.89 0.91 0.93 0.95 0.95 0.97 0.99 1.01
0.59 0.59 0.61 0.61 0.63 0.65 0.67 0.69 0.73 0.75 0.75 0.77 0.81 0.85 0.89 0.91 0.93 0.93 0.95 0.95 0.93 0.93 0.95 0.95 0.95 0.97 0.99 0.97 0.97 0.97 0.97 0.97 0.97 0.97 0.99 0.99 1.01 1.01 1.03 1.05 1.05 1.05 1.07 1.09 1.11 1.13 1.13 1.11 1.09 1.07 1.03 1.01 0.99 0.93 0.89 0.89 0.89 0.89 0.89 0.89 0.95 0.99 1.01 1.01 1.01 1.01 1.01 1.03 1.05
0.59 0.59 0.61 0.61 0.63 0.65 0.67 0.69 0.71 0.73 0.75 0.77 0.81 0.85 0.89 0.91 0.93 0.93 0.95 0.97 0.95 0.95 0.95 0.97 0.99 0.99 0.97 0.97 0.97 0.99 0.99 1.01 1.01 1.01 1.01 1.01 1.01 1.03 1.03 1.03 1.05 1.07 1.09 1.13 1.14 1.13 1.13 1.11 1.09 1.07 1.03 1.01 0.99 0.97 0.95 0.91 0.91 0.91 0.91 0.93 0.99 1.01 1.03 1.01 1.01 1.01 1.03 1.03 1.07
0.61 0.61 0.61 0.61 0.63 0.63 0.67 0.67 0.71 0.73 0.75 0.77 0.79 0.83 0.87 0.91 0.91 0.93 0.93 0.95 0.93 0.93 0.95 0.95 0.95 0.95 0.95 0.95 0.95 0.97 0.99 0.99 1.01 1.01 1.01 1.01 1.01 1.03 1.03 1.05 1.07 1.09 1.11 1.13 1.14 1.13 1.13 1.11 1.09 1.07 1.05 1.03 1.03 1.01 0.99 0.97 0.95 0.93 0.95 0.99 1.01 1.01 0.99 0.97 0.97 0.99 1.01 1.05 1.07
0.61 0.65 0.65 0.65 0.63 0.65 0.65 0.67 0.69 0.71 0.73 0.77 0.79 0.81 0.85 0.87 0.89 0.89 0.91 0.91 0.93 0.95 0.95 0.93 0.93 0.91 0.91 0.91 0.91 0.91 0.93 0.95 0.99 0.99 1.01 1.01 1.01 1.01 1.03 1.05 1.07 1.09 1.11 1.13 1.14 1.13 1.11 1.09 1.07 1.07 1.05 1.05 1.05 1.03 1.01 0.99 0.99 0.97 0.97 0.99 0.97 0.97 0.95 0.93 0.95 0.99 1.03 1.07 1.07
0.61 0.65 0.67 0.67 0.67 0.67 0.69 0.69 0.69 0.71 0.73 0.75 0.77 0.79 0.81 0.81 0.83 0.85 0.89 0.91 0.93 0.93 0.93 0.91 0.89 0.89 0.89 0.89 0.87 0.89 0.89 0.93 0.93 0.97 0.99 0.99 0.99 0.99 1.01 1.03 1.05 1.07 1.09 1.13 1.13 1.13 1.11 1.07 1.07 1.07 1.07 1.05 1.05 1.03 1.01 1.01 0.99 0.99 0.97 0.99 0.97 0.95 0.93 0.93 0.95 0.99 1.03 1.07 1.07
0.63 0.63 0.65 0.67 0.67 0.69 0.69 0.69 0.67 0.69 0.71 0.71 0.73 0.75 0.77 0.79 0.81 0.83 0.85 0.87 0.89 0.91 0.91 0.91 0.89 0.89 0.89 0.89 0.87 0.87 0.89 0.91 0.93 0.95 0.99 0.99 0.99 0.99 1.01 1.03 1.05 1.07 1.11 1.13 1.13 1.13 1.11 1.09 1.09 1.07 1.07 1.05 1.03 1.03 1.01 1.01 0.99 0.99 0.99 0.97 0.95 0.93 0.93 0.93 0.97 1.01 1.05 1.09 1.07
0.63 0.63 0.65 0.65 0.67 0.67 0.69 0.67 0.67 0.67 0.69 0.69 0.71 0.73 0.75 0.77 0.79 0.81 0.83 0.85 0.87 0.89 0.91 0.91 0.91 0.91 0.89 0.89 0.89 0.89 0.89 0.91 0.95 0.97 0.99 0.99 1.01 1.01 1.01 1.03 1.05 1.09 1.11 1.13 1.11 1.11 1.09 1.09 1.07 1.07 1.07 1.05 1.05 1.03 1.01 1.01 0.99 0.99 0.97 0.95 0.95 0.93 0.93 0.93 0.97 1.01 1.05 1.07 1.03
0.61 0.61 0.63 0.63 0.65 0.67 0.67 0.67 0.65 0.67 0.67 0.69 0.69 0.71 0.73 0.75 0.77 0.77 0.79 0.81 0.85 0.87 0.89 0.89 0.91 0.91 0.91 0.91 0.91 0.89 0.91 0.93 0.95 0.97 0.99 0.99 1.01 1.01 1.01 1.03 1.07 1.09 1.11 1.11 1.11 1.09 1.09 1.09 1.07 1.07 1.07 1.05 1.05 1.05 1.03 1.03 1.01 0.99 0.97 0.95 0.93 0.93 0.91 0.93 0.95 0.99 1.01 1.01 0.95
0.59 0.61 0.61 0.61 0.63 0.65 0.65 0.65 0.65 0.65 0.65 0.67 0.69 0.71 0.73 0.73 0.75 0.77 0.79 0.81 0.81 0.83 0.85 0.85 0.87 0.87 0.89 0.89 0.89 0.91 0.91 0.93 0.93 0.95 0.97 0.99 0.99 1.01 1.01 1.03 1.05 1.07 1.07 1.09 1.09 1.09 1.09 1.09 1.07 1.07 1.07 1.07 1.07 1.05 1.05 1.03 1.01 0.99 0.97 0.95 0.93 0.91 0.91 0.91 0.93 0.95 0.93 0.87 0.87
0.59 0.59 0.61 0.61 0.61 0.63 0.63 0.65 0.63 0.63 0.65 0.67 0.69 0.71 0.73 0.73 0.75 0.77 0.77 0.79 0.79 0.79 0.81 0.83 0.83 0.85 0.85 0.85 0.87 0.89 0.91 0.93 0.93 0.93 0.95 0.95 0.97 0.99 1.01 1.03 1.03 1.05 1.05 1.07 1.09 1.09 1.09 1.09 1.09 1.09 1.07 1.07 1.07 1.05 1.03 1.01 0.97 0.93 0.91 0.89 0.87 0.87 0.87 0.87 0.89 0.89 0.87 0.81 0.83
0.59 0.59 0.59 0.59 0.59 0.61 0.61 0.63 0.63 0.63 0.65 0.67 0.69 0.71 0.73 0.75 0.75 0.77 0.77 0.79 0.77 0.77 0.79 0.83 0.81 0.83 0.83 0.83 0.85 0.87 0.89 0.91 0.91 0.91 0.91 0.93 0.95 0.95 0.97 0.99 0.99 1.01 1.03 1.05 1.05 1.07 1.07 1.07 1.07 1.07 1.05 1.05 1.03 1.03 0.99 0.91 0.89 0.87 0.85 0.83 0.81 0.81 0.81 0.83 0.83 0.83 0.81 0.77 0.79
0.57 0.59 0.59 0.59 0.59 0.59 0.61 0.61 0.61 0.63 0.63 0.67 0.69 0.71 0.73 0.75 0.75 0.77 0.77 0.77 0.77 0.77 0.77 0.79 0.81 0.83 0.83 0.83 0.83 0.83 0.85 0.87 0.89 0.89 0.89 0.89 0.91 0.93 0.95 0.93 0.97 0.99 1.01 1.01 1.03 1.03 1.03 1.03 1.03 1.03 1.01 1.01 0.97 0.97 0.93 0.87 0.83 0.79 0.79 0.77 0.75 0.75 0.77 0.77 0.77 0.77 0.75 0.75 0.77
0.57 0.57 0.57 0.57 0.57 0.59 0.59 0.61 0.61 0.61 0.63 0.65 0.69 0.71 0.73 0.73 0.73 0.75 0.75 0.75 0.75 0.75 0.75 0.75 0.81 0.83 0.85 0.85 0.83 0.81 0.83 0.83 0.85 0.87 0.87 0.89 0.89 0.91 0.91 0.91 0.93 0.95 0.97 0.97 0.99 0.99 0.99 1.01 0.99 0.99 0.99 0.97 0.95 0.91 0.89 0.85 0.81 0.77 0.75 0.73 0.71 0.71 0.71 0.73 0.73 0.71 0.71 0.73 0.77
0.57 0.57 0.57 0.57 0.57 0.57 0.57 0.59 0.61 0.61 0.63 0.65 0.67 0.69 0.71 0.71 0.71 0.73 0.73 0.73 0.73 0.73 0.73 0.73 0.79 0.83 0.85 0.85 0.83 0.83 0.81 0.81 0.83 0.85 0.87 0.89 0.89 0.89 0.89 0.89 0.89 0.91 0.93 0.95 0.97 0.97 0.99 0.99 0.99 0.99 0.97 0.97 0.93 0.91 0.87 0.83 0.79 0.75 0.71 0.69 0.69 0.69 0.67 0.69 0.69 0.69 0.71 0.73 0.77
Wind_Speed
34 34 34 34 34 35 35 36 36 36 37 37 37 37 37 38 38 38 38 38 38 39 39 39 40 40 40 41 41 42 42 42 43 43 43 43 43 44 44 44 45 45 46 46 46 46 47 47 48 48 49 49 49 49 49 48 48 48 47 46 46 46 46 45 45 44 44 43 42
32 33 33 33 33 33 34 34 35 35 35 36 36 36 36 37 37 37 37 38 38 38 39 39 40 40 41 41 42 42 42 43 43 43 44 44 44 44 44 44 44 45 45 45 46 46 46 47 48 48 48 49 49 49 49 48 48 48 47 47 46 45 45 45 45 44 44 43 42
31 31 31 31 31 32 32 33 33 34 34 35 35 35 36 36 36 37 37 37 38 38 39 39 40 40 41 41 42 42 43 43 43 44 44 44 44 44 44 43 43 44 44 45 45 45 46 46 47 48 48 48 49 49 49 48 48 47 47 46 45 45 45 45 44 44 43 42 42
29 29 30 30 31 31 31 32 32 33 33 33 34 35 35 36 36 37 37 38 38 38 39 39 39 40 40 41 41 42 42 43 43 44 44 45 45 45 45 44 44 43 44 44 44 45 45 46 46 47 48 48 49 49 49 48 47 47 46 45 44 44 44 44 43 43 42 42 41
28 28 29 29 30 30 31 31 31 32 32 32 33 34 35 36 37 37 38 38 38 38 38 39 39 39 39 40 41 41 42 42 43 43 44 44 45 45 45 45 44 44 44 44 44 44 45 45 45 46 47 48 49 48 48 47 47 46 45 44 44 44 44 43 42 42 41 41 40
27 28 28 28 29 29 29 30 30 31 31 32 33 34 35 36 37 37 38 38 38 38 38 38 38 39 39 39 40 41 41 42 42 43 43 44 44 44 45 45 45 44 44 44 44 44 45 45 45 46 47 47 48 48 48 47 46 45 44 43 43 43 43 42 41 40 40 40 40
26 27 27 27 27 28 28 28 29 29 30 31 33 34 35 36 37 37 38 37 37 37 37 37 38 38 39 39 40 40 41 41 42 42 42 43 43 44 44 45 45 45 44 44 44 44 44 44 44 45 46 47 47 47 47 46 45 44 43 43 42 42 42 41 40 39 39 40 40
25 25 25 26 26 26 27 27 27 28 29 30 32 33 34 34 35 36 36 36 37 37 37 37 38 39 39 40 40 40 41 41 41 41 42 42 42 43 43 44 44 44 45 44 44 44 43 43 44 44 45 46 46 46 46 46 45 44 43 42 42 41 41 40 39 39 39 40 39
23 23 24 24 24 25 25 26 26 27 28 29 30 31 32 32 33 34 35 36 37 37 38 38 39 39 40 40 41 41 41 41 41 41 41 41 41 42 42 43 43 44 44 44 44 44 43 43 43 43 44 45 45 45 45 45 44 43 43 42 41 40 40 40 39 39 39 39 39
22 22 22 23 23 24 24 25 25 26 27 28 29 29 30 31 32 33 34 35 36 37 38 39 39 40 40 41 41 41 41 41 41 41 41 41 41 41 41 42 43 43 44 45 45 44 44 43 42 42 43 44 45 45 44 44 44 43 43 42 41 40 40 40 39 39 39 38 38
21 21 22 22 23 23 23 24 24 25 25 26 27 28 30 31 32 33 34 35 36 37 38 39 39 40 40 40 40 40 40 40 40 40 40 41 40 40 40 41 42 43 44 45 45 45 44 42 42 42 43 44 45 44 43 43 43 43 43 42 41 40 40 40 40 39 39 38 38
21 21 21 22 22 23 23 23 23 24 24 25 26 28 29 31 32 33 34 34 35 36 37 37 38 39 39 39 39 39 39 39 39 39 39 40 40 39 39 40 41 43 44 45 45 44 43 42 41 42 42 43 44 43 42 42 42 43 42 42 41 41 41 40 40 39 39 38 37
20 20 21 21 22 22 23 23 23 23 24 25 27 28 29 30 31 32 32 33 33 34 34 35 36 37 38 39 39 39 39 39 38 38 38 39 39 38 38 39 40 42 44 45 45 44 43 41 41 41 42 42 42 42 41 41 42 42 42 42 42 41 41 40 40 39 38 37 37
19 20 20 21 21 22 22 22 22 23 24 25 27 28 29 30 30 30 30 31 32 33 34 35 36 37 38 39 39 40 39 39 38 38 38 38 38 38 38 38 40 42 43 44 44 43 42 41 40 40 41 41 42 42 41 40 41 41 42 42 42 41 41 40 39 39 38 37 36
19 19 20 21 21 22 22 22 22 23 24 26 27 28 29 28 28 28 29 30 31 33 34 35 36 37 38 38 39 40 40 39 38 38 38 38 37 37 37 38 40 41 42 43 43 42 41 40 39 39 39 39 40 41 41 40 40 41 41 41 41 41 40 39 38 38 37 36 35
19 19 20 21 21 22 22 22 22 23 24 26 27 28 28 28 27 28 29 30 31 31 32 33 34 35 36 37 38 39 40 39 38 38 37 37 37 37 37 38 39 40 41 41 41 41 40 39 39 38 38 38 39 40 40 39 39 39 40 41 40 40 39 39 38 37 36 36 35
19 20 20 21 22 22 22 22 22 23 24 26 27 27 27 27 27 27 28 28 29 29 30 31 32 33 34 35 36 38 38 39 38 37 37 37 36 36 37 37 38 39 40 40 41 40 39 38 38 37 37 37 38 39 40 39 39 39 39 40 40 39 39 38 38 37 36 36 35
19 20 20 21 22 22 22 22 23 23 24 25 25 26 26 26 26 25 25 25 26 27 27 28 29 30 31 32 34 35 36 37 37 36 36 36 36 36 36 37 38 39 40 40 40 39 38 37 36 36 36 37 38 39 39 39 39 39 39 39 39 39 38 38 37 37 36 36 35
19 19 20 20 21 22 22 22 23 23 24 24 24 25 25 25 24 22 22 22 22 23 23 24 24 25 27 29 31 32 34 35 35 35 35 35 35 35 36 36 38 39 39 39 39 38 37 37 36 36 36 37 38 38 38 38 39 39 38 38 38 38 37 37 37 36 36 36 35
19 19 19 20 20 21 21 22 22 23 23 22 23 24 25 23 21 19 18 18 18 18 18 18 19 21 23 25 28 30 31 32 33 33 33 33 33 34 35 36 37 38 38 38 37 37 37 36 35 35 36 37 37 37 37 38 38 38 38 38 38 37 37 37 37 36 36 35 35
18 18 19 19 19 20 20 21 21 22 22 21 22 23 23 21 18 16 15 14 13 12 12 13 15 17 20 23 25 28 29 30 31 31 31 31 32 33 34 35 36 36 36 36 36 36 36 35 35 35 36 36 37 37 37 37 37 38 38 38 38 37 37 37 37 36 36 35 35
18 18 18 18 18 18 19 20 20 20 20 20 20 21 21 19 16 14 12 9 7 6 7 9 12 15 18 21 24 26 27 28 29 29 29 30 31 32 34 35 35 35 35 36 36 36 35 34 34 35 36 36 36 36 36 36 36 37 37 37 37 37 37 37 36 36 36 36 35
17 17 17 17 17 17 18 18 19 19 19 19 19 19 18 16 14 12 9 5 3 2 4 6 10 14 17 20 22 24 25 27 27 28 29 30 31 32 33 33 34 34 35 36 35 34 33 33 34 35 35 35 35 35 36 36 36 36 36 36 36 36 36 36 36 36 35 35 35
17 17 16 16 16 16 17 17 17 17 17 17 17 16 16 14 12 10 6 2 1 3 5 7 10 14 17 19 21 23 24 26 27 28 29 30 31 31 32 32 33 34 34 34 33 32 32 32 33 34 34 34 34 35 35 35 35 35 35 35 35 35 35 35 35 35 35 35 34
15 15 15 15 15 15 15 15 15 15 15 15 15 14 13 12 11 8 4 2 3 4 6 9 12 15 17 19 21 23 25 27 28 29 30 30 29 29 30 31 32 33 33 32 32 31 31 31 32 32 33 33 33 34 34 34 34 34 34 34 34 34 34 34 34 34 34 34 34
14 14 14 14 14 14 14 13 13 13 14 14 13 12 12 11 11 8 2 4 6 7 8 11 13 16 18 20 22 24 25 27 28 28 28 28 28 28 29 30 31 31 30 30 31 31 31 31 31 32 32 32 33 33 33 33 33 34 34 34 34 34 34 34 34 34 34 33 33
12 12 12 12 12 12 12 12 11 11 12 12 11 11 10 10 10 7 2 4 8 9 10 11 14 16 18 20 22 23 24 25 25 26 26 27 27 28 28 29 29 29 29 29 30 31 31 31 31 31 32 32 32 32 32 32 33 33 33 33 33 33 33 33 33 33 33 33 32
11 11 11 11 11 10 10 10 10 10 10 10 9 9 8 8 7 5 3 5 8 9 10 12 14 16 17 19 21 22 22 22 23 24 25 25 26 26 26 26 27 27 27 28 28 29 30 30 31 31 31 31 32 32 32 32 32 33 33 33 32 32 32 32 32 32 32 31 31
10 10 10 10 9 8 8 8 8 8 8 8 7 6 6 5 5 5 6 7 8 10 10 12 14 15 17 18 19 20 20 20 21 22 23 24 24 24 24 24 25 25 26 26 27 27 28 29 30 30 31 31 31 31 31 31 32 32 32 32 32 31 31 31 31 31 31 30 30
9 9 9 8 7 6 6 6 7 7 7 6 5 4 4 3 3 5 7 8 9 10 11 12 13 14 15 16 17 17 18 18 19 20 21 22 22 22 22 23 23 24 24 25 25 26 27 28 29 29 30 30 30 30 30 31 31 31 31 31 31 31 31 30 30 30 29 28 28
7 7 7 7 5 5 4 5 5 5 5 4 4 3 3 3 3 4 6 8 9 10 11 13 13 14 14 15 15 15 16 16 17 18 18 19 19 20 20 21 22 22 24 25 25 26 26 27 28 28 28 28 29 29 29 29 29 30 30 30 30 30 29 29 29 28 28 28 28
7 6 5 5 4 3 3 4 4 4 4 3 2 2 2 3 4 4 6 7 8 9 10 12 12 12 13 13 14 14 14 14 15 15 16 17 17 18 18 19 20 22 23 24 25 25 26 27 27 27 27 27 26 27 27 27 27 28 28 28 28 28 28 27 27 27 27 28 29
6 5 4 3 3 2 2 3 3 3 2 2 1 1 2 3 4 5 6 6 7 8 9 10 10 11 11 12 12 12 12 12 12 13 13 14 15 15 16 18 19 21 22 23 23 24 25 26 26 26 25 25 24 24 25 25 26 26 26 26 26 26 26 26 25 26 26 28 28
4 4 3 2 1 1 1 2 2 2 1 1 1 2 2 3 5 6 6 7 7 8 9 9 10 10 11 11 11 11 11 11 11 11 11 12 13 14 15 16 18 19 20 21 22 23 24 25 25 25 24 23 23 23 23 23 24 25 25 25 25 25 25 24 25 25 26 27 27
3 2 2 1 1 1 1 1 1 2 2 2 2 3 3 4 5 6 7 8 8 8 9 9 9 10 10 10 11 11 10 10 11 11 11 12 13 13 14 15 16 17 18 20 21 22 23 23 24 23 23 22 22 22 22 22 23 23 23 24 24 24 24 24 24 25 25 25 25
3 2 2 2 2 2 2 2 2 3 3 3 4 4 4 5 6 7 8 9 9 10 10 10 10 10 10 10 10 10 10 10 11 11 12 12 13 13 14 14 15 16 17 18 20 21 22 22 22 22 22 22 21 21 21 21 21 21 22 22 22 22 23 23 23 23 24 24 24
3 3 3 3 3 3 3 3 4 4 4 5 5 5 5 6 6 7 8 9 10 10 10 10 10 10 10 10 10 10 10 10 10 11 11 12 12 13 13 14 14 15 16 18 19 20 21 21 22 21 21 21 21 21 20 20 20 20 20 20 21 21 21 22 22 22 22 22 23
4 4 4 5 4 4 5 5 5 5 6 6 6 6 6 6 6 7 8 9 9 10 10 10 10 10 10 11 11 11 11 10 10 10 11 11 12 13 14 14 15 15 16 17 18 19 20 20 20 20 20 20 20 20 20 20 19 19 19 20 20 20 20 20 20 20 21 21 22
6 6 6 6 6 6 6 6 6 6 6 6 6 6 6 6 6 7 8 9 9 10 10 10 10 10 11 11 12 12 12 11 11 10 11 11 12 13 14 15 15 15 16 16 17 17 18 18 18 19 19 19 19 20 19 19 19 19 19 19 19 19 19 19 19 19 20 20 21
7 7 7 7 7 7 7 7 7 7 7 7 6 6 6 6 6 7 7 8 9 10 10 10 10 10 11 11 11 11 12 12 11 11 11 11 12 12 13 14 15 15 15 15 15 15 15 16 16 17 18 18 19 19 19 19 18 18 18 18 18 18 18 18 18 18 19 19 20
9 9 9 9 9 9 9 9 9 8 8 7 6 6 6 7 7 7 8 8 9 9 9 9 10 10 10 10 10 10 10 10 10 10 10 11 12 12 13 13 14 14 14 13 13 13 14 14 15 16 17 17 18 18 18 18 18 17 17 17 17 17 17 17 17 18 18 18 18
Wind_Direction
272 271 270 269 269 268 267 267 266 265 264 263 262 261 260 259 258 257 256 255 255 254 254 253 253 252 251 250 249 248 248 247 246 245 244 244 243 241 240 239 238 237 236 235 234 233 233 232 231 231 231 231 233 234 234 232 231 230 229 228 227 227 228 228 228 228 228 228 228
272 271 270 269 268 267 267 266 265 264 263 262 261 260 259 258 257 257 256 255 254 254 254 253 253 252 252 251 250 248 247 247 246 245 244 243 242 241 240 238 237 236 235 235 234 233 232 231 230 230 230 230 231 232 233 232 230 229 229 227 227 226 227 227 227 227 227 227 227
272 271 270 269 268 267 266 265 264 263 262 262 261 260 259 258 257 256 256 255 255 255 255 254 254 253 252 251 250 248 247 246 246 245 244 243 242 240 239 238 237 236 235 234 233 232 231 230 229 229 229 229 229 231 232 231 229 228 228 227 226 225 225 226 225 225 225 225 225
272 272 271 270 268 267 266 265 264 263 262 262 261 260 259 258 257 257 257 257 257 257 256 255 255 254 252 251 249 248 247 246 245 244 244 243 242 240 238 237 236 235 234 233 232 231 230 229 228 228 228 228 228 229 230 230 227 226 226 226 225 225 224 224 224 224 223 223 223
273 272 271 270 268 267 266 265 264 264 263 263 262 261 260 259 259 259 259 259 258 258 257 256 255 254 252 251 249 248 246 245 244 244 243 243 241 240 238 236 235 233 232 232 231 230 229 228 227 227 227 227 227 227 228 228 226 224 224 224 224 224 223 223 223 222 221 221 221
275 273 271 270 268 267 266 265 265 265 265 265 265 264 263 262 261 260 260 259 259 258 257 256 255 254 252 251 249 248 246 245 244 243 242 242 241 239 237 236 234 232 231 230 229 229 228 227 227 227 227 226 226 226 227 226 224 222 222 222 223 223 222 222 221 220 219 219 219
276 274 272 270 269 268 267 267 267 268 268 268 267 266 265 264 263 261 260 259 259 258 257 255 254 253 252 251 250 248 246 244 243 242 241 241 240 239 237 235 233 231 229 228 228 227 227 227 226 226 226 225 225 225 225 224 222 220 220 220 221 221 221 220 219 218 217 216 216
276 273 271 270 269 269 269 269 270 271 271 271 270 269 267 265 263 262 260 259 258 257 256 255 254 252 252 251 250 248 246 244 243 241 240 240 239 238 236 234 232 230 228 227 226 226 226 226 226 226 225 224 224 224 224 222 220 219 219 219 219 219 219 218 217 216 215 214 214
275 273 271 270 270 270 271 272 273 273 274 273 272 271 270 267 265 263 261 260 259 257 256 255 254 253 252 251 250 248 246 244 242 240 239 238 238 237 235 233 231 229 227 225 224 224 225 225 225 225 224 223 223 223 223 220 218 217 217 218 217 217 217 216 215 214 213 213 214
275 273 272 271 271 272 273 274 275 276 276 275 275 274 272 270 267 265 263 261 260 259 257 256 254 253 252 250 249 248 246 244 242 240 238 237 236 236 234 232 230 227 225 224 223 223 223 224 224 224 223 222 222 222 222 219 216 215 215 216 216 215 214 214 214 213 213 213 214
275 273 273 273 274 275 276 277 277 278 278 278 278 277 275 273 270 268 266 264 262 260 258 256 254 253 251 250 248 247 245 243 241 238 237 235 235 234 233 231 229 226 224 222 221 221 221 222 223 222 222 222 221 221 220 218 214 213 213 214 214 213 213 212 212 212 212 213 214
275 274 274 275 276 277 278 279 279 280 281 282 282 281 279 277 274 271 269 266 263 260 258 256 254 252 250 249 247 245 244 241 239 237 235 233 233 232 232 230 227 224 222 220 220 219 220 220 221 221 222 222 221 220 219 216 212 211 212 213 213 213 212 212 211 212 212 213 214
277 276 276 277 278 279 280 280 281 282 283 284 285 284 282 279 277 274 271 267 264 261 259 256 253 251 249 247 246 244 242 240 237 235 233 231 231 231 230 228 226 223 220 219 218 218 218 219 219 221 221 221 220 218 217 215 211 210 211 212 212 212 211 211 211 211 211 212 213
280 279 279 279 279 280 281 282 283 283 284 285 285 285 284 282 279 276 273 270 267 264 260 257 254 252 249 247 245 242 240 237 235 232 230 229 229 229 228 226 224 221 218 217 216 216 216 217 218 220 221 220 219 217 216 213 210 209 210 211 211 211 211 210 210 210 211 212 212
283 282 281 281 281 281 282 283 284 285 285 286 286 287 287 285 282 278 275 273 271 268 264 259 255 252 249 246 243 240 237 234 232 229 227 227 227 227 226 224 221 219 216 214 214 214 214 216 218 219 220 219 217 216 214 212 209 208 208 209 210 210 210 210 209 210 210 211 212
286 284 283 282 281 281 282 283 285 286 287 288 290 291 291 289 285 281 277 275 274 272 268 261 256 251 248 244 241 237 233 230 228 226 224 224 224 225 224 222 219 216 214 212 211 211 213 215 217 218 218 217 216 215 213 210 207 207 207 208 208 209 209 209 209 210 211 212 213
288 286 284 283 282 282 283 284 285 287 289 291 294 295 295 293 288 282 277 275 275 274 270 263 256 251 246 241 236 232 228 226 223 222 221 222 222 222 221 219 216 213 211 209 209 210 212 214 216 217 216 215 214 213 211 208 207 206 206 207 207 208 209 210 210 211 212 213 214
289 287 285 283 283 282 283 284 286 288 291 294 297 299 299 296 290 284 279 277 277 274 270 263 255 248 241 235 230 226 223 220 219 218 219 220 221 221 219 217 213 210 208 207 207 208 211 213 214 214 214 213 213 211 209 207 206 205 206 206 207 208 209 210 211 212 214 215 216
291 288 286 284 283 283 283 285 287 290 293 297 299 302 302 300 294 288 284 282 280 275 268 260 250 242 234 228 223 219 216 215 214 215 216 218 219 218 216 213 209 206 205 204 206 208 210 212 212 212 212 212 211 209 207 205 205 205 205 206 207 208 209 211 212 214 215 216 217
291 289 287 286 284 283 284 285 288 291 294 297 301 304 306 305 299 294 290 287 282 276 266 253 241 231 223 218 214 211 209 209 210 212 214 215 215 213 210 206 203 202 202 203 205 207 209 210 210 210 210 210 209 208 206 205 204 204 205 206 207 209 210 212 213 215 217 218 219
293 291 289 287 285 284 284 286 289 292 295 298 302 306 310 311 307 301 295 290 284 276 261 241 226 216 210 206 204 203 203 204 206 208 209 210 208 205 202 199 197 198 200 203 206 207 208 209 209 208 208 208 207 206 205 204 204 204 205 207 208 210 211 213 215 216 218 219 220
295 293 290 288 286 285 285 287 290 293 295 298 302 308 314 317 314 308 300 293 286 272 248 222 207 199 196 195 195 196 198 200 202 203 203 201 199 196 193 192 194 197 200 204 206 207 207 207 207 207 207 206 205 204 203 203 204 204 206 207 208 210 212 213 215 217 218 219 220
296 293 291 288 287 287 287 289 292 294 296 299 303 311 319 323 322 316 306 294 277 242 209 192 186 184 184 186 188 190 192 194 195 195 194 192 189 188 188 191 194 199 202 205 206 206 205 204 204 205 205 205 204 203 202 203 204 205 206 207 208 210 212 214 216 217 218 219 220
297 294 291 289 288 288 290 292 294 296 298 300 305 314 323 329 331 328 321 303 203 168 166 165 168 170 172 175 178 181 183 184 184 184 184 184 184 185 188 193 197 201 202 203 203 202 202 201 202 203 203 203 202 202 202 203 204 205 206 207 209 210 212 214 215 217 218 219 220
298 295 292 290 289 290 292 294 296 298 300 303 308 317 327 335 337 338 346 101 122 137 148 155 158 159 161 163 166 169 172 173 174 176 178 180 183 187 191 195 198 199 199 199 199 199 199 200 201 201 202 202 202 202 202 203 204 205 206 208 209 211 212 214 215 216 217 218 219
299 296 293 292 291 292 294 296 299 301 303 306 312 320 331 339 340 338 345 134 133 133 139 147 150 152 154 157 159 162 165 168 171 174 178 182 186 190 193 195 196 196 196 197 197 197 198 199 200 200 201 201 201 202 203 204 205 206 207 208 210 211 212 213 215 215 216 217 218
300 298 296 294 293 294 296 299 301 304 307 310 317 325 334 341 343 342 345 150 146 143 142 145 148 151 154 157 161 164 167 170 174 177 181 185 189 191 192 193 194 194 195 195 196 197 198 199 200 200 200 200 201 202 203 204 205 206 207 208 210 211 212 213 214 214 215 216 216
302 302 300 297 295 295 298 302 305 308 311 315 320 329 338 344 349 1 52 129 142 144 144 144 146 149 152 156 160 164 168 172 175 179 183 187 189 190 191 191 192 192 194 195 196 197 198 199 199 199 199 199 200 201 202 204 205 206 207 208 209 210 211 212 213 213 213 214 215
306 307 306 302 298 297 300 306 310 312 314 317 324 334 344 353 8 39 77 108 124 133 136 138 140 143 146 149 153 157 161 166 171 176 181 184 186 187 188 189 190 192 193 195 195 195 196 197 198 198 198 198 199 200 202 203 204 205 206 207 208 209 210 211 212 212 213 214 215
310 311 309 305 300 298 303 311 314 316 316 320 329 343 359 17 41 68 87 103 116 126 132 135 136 139 142 145 148 152 156 160 166 171 176 179 181 184 186 188 189 192 194 195 194 194 195 196 196 196 196 197 198 199 200 201 202 204 205 206 207 208 209 210 210 211 212 214 215
310 310 308 304 301 302 309 317 320 320 321 326 336 354 22 51 71 85 94 102 115 127 134 138 139 140 143 147 150 153 157 162 166 171 175 178 181 184 187 190 192 194 195 194 194 195 195 195 195 195 195 196 197 198 199 200 201 202 204 205 206 207 208 209 209 210 212 213 214
309 306 303 303 302 306 315 323 326 328 330 337 351 12 42 71 89 98 101 104 113 125 135 140 143 145 147 149 151 154 157 161 166 172 176 180 184 188 191 194 196 195 194 193 194 196 196 195 195 195 195 196 197 198 199 200 201 202 203 204 205 206 207 208 209 210 211 212 213
310 306 303 306 307 312 321 331 335 340 346 1 22 46 71 88 100 105 106 106 112 122 132 140 146 149 151 152 153 154 156 158 162 168 175 180 184 188 191 193 194 193 191 191 194 196 196 195 195 195 196 198 199 199 199 200 201 201 202 203 204 205 206 208 209 209 210 211 212
320 316 315 318 324 332 341 353 0 9 24 49 72 88 97 103 107 109 110 111 116 122 129 136 143 149 153 155 156 158 159 161 162 165 170 175 178 180 183 186 187 188 188 190 192 194 195 194 195 196 197 198 199 199 199 198 199 200 201 202 203 205 207 208 209 209 209 210 211
345 346 354 16 35 42 47 52 57 63 74 86 98 105 109 113 116 117 118 119 121 122 124 128 135 143 149 154 159 162 165 167 168 169 170 171 172 174 175 178 182 186 188 189 190 191 192 192 193 194 196 197 198 198 197 197 197 198 199 200 202 205 207 208 208 208 209 210 212
23 35 52 67 74 80 86 92 92 92 93 98 104 109 114 118 122 124 125 125 124 122 121 123 127 133 140 148 156 162 166 169 170 171 170 170 170 171 173 176 180 184 187 187 187 187 187 189 190 192 194 195 196 195 195 195 196 196 197 199 201 203 205 206 207 209 210 212 214
43 55 67 76 84 92 99 106 106 105 104 105 107 110 114 118 123 127 129 129 127 124 122 122 123 125 130 138 144 150 155 160 163 165 167 168 169 171 173 175 176 178 180 181 182 182 184 185 187 190 191 192 192 192 193 194 194 195 196 198 200 202 204 206 208 210 212 214 216
50 61 70 78 86 95 104 112 115 114 112 111 111 112 115 119 123 128 131 132 131 128 126 124 122 123 125 129 133 136 139 143 148 153 158 162 166 170 171 170 169 171 173 176 177 179 182 184 187 189 190 190 190 190 192 193 194 195 196 198 199 202 204 206 209 211 214 217 219
57 65 73 81 88 95 104 111 116 118 118 119 119 119 120 122 126 130 132 133 133 131 129 126 124 124 124 126 128 130 130 131 133 137 143 151 158 163 166 165 165 166 169 172 175 178 181 184 187 189 190 189 190 191 192 193 193 194 195 197 199 201 204 207 209 212 216 219 221
64 69 75 82 88 94 101 107 113 117 120 123 125 126 127 128 130 131 133 134 134 132 130 128 126 126 126 128 129 129 128 127 126 127 130 136 145 152 158 161 162 164 167 170 173 176 180 183 186 188 189 190 190 191 192 191 192 192 194 196 199 201 204 207 209 212 215 218 221
68 71 76 82 88 92 97 101 107 113 118 121 123 127 130 131 130 130 131 134 134 134 134 132 130 128 129 132 135 134 132 130 127 125 125 128 134 143 151 158 162 164 167 170 172 174 177 180 183 185 187 188 189 189 190 190 190 191 194 197 200 202 204 207 209 211 213 215 217